Location: B�rgermoos
(47.6500°N, 9.0667°E)
Time: 17:32:46
(UTC+00:00)

A-11 Canister half - Pass Details

Date: 05 August 2021
Orbit: 1526 x 1683 km, 47.3° (Epoch: 20 September)

Event Time Altitude Azimuth Distance (km) Brightness Sun altitude
Rises 08:41:05 0° 210° (SSW) 4,911 11.6 43.8°
Reaches altitude 10° 08:44:30 10° 203° (SSW) 3,933 11.3 44.3°
Maximum altitude 08:53:35 40° 139° (SE) 2,326 12.0 45.6°
Drops below altitude 10° 09:02:37 10° 75° (ENE) 3,921 11.7 46.9°
Sets 09:06:00 0° 69° (ENE) 4,896 12.0 47.4°
